| time (UTC) | temp F | wind direction | speed MPH | gust MPH | rain 1hr in | rain 24hr in | rain mn in | humidity % | barometer mb |
| 20260510051004 | 50 | 270 | 1.0 | 2.0 | 0.00 | 0.25 | 0.00 | 98 | 1013.5 |
| 20260510050005 | 49 | 270 | 0.0 | 2.0 | 0.00 | 0.25 | 0.00 | 97 | 1013.4 |
| 20260510045003 | 49 | 252 | 0.0 | 0.0 | 0.00 | 0.25 | 0.00 | 96 | 1013.3 |
| 20260510044004 | 49 | 252 | 0.0 | 0.0 | 0.00 | 0.25 | 0.00 | 96 | 1013.0 |
| 20260510043003 | 50 | 252 | 0.0 | 0.0 | 0.00 | 0.25 | 0.00 | 96 | 1012.7 |
| 20260510042003 | 50 | 252 | 0.0 | 0.0 | 0.00 | 0.25 | 0.00 | 96 | 1012.5 |
| 20260510041004 | 50 | 252 | 0.0 | 1.0 | 0.00 | 0.25 | 0.00 | 96 | 1012.3 |
| 20260510040003 | 51 | 195 | 0.0 | 3.0 | 0.00 | 0.25 | 0.00 | 96 | 1012.1 |
| 20260510035003 | 51 | 158 | 0.0 | 2.0 | 0.00 | 0.25 | 0.25 | 96 | 1011.8 |
| 20260510034003 | 51 | 206 | 1.0 | 2.0 | 0.00 | 0.25 | 0.25 | 96 | 1011.8 |
| 20260510033003 | 51 | 206 | 0.0 | 2.0 | 0.00 | 0.25 | 0.25 | 95 | 1011.8 |
| 20260510032003 | 51 | 233 | 0.0 | 5.0 | 0.00 | 0.25 | 0.25 | 95 | 1011.9 |
| 20260510031003 | 52 | 267 | 1.0 | 3.0 | 0.00 | 0.25 | 0.25 | 96 | 1011.7 |
| 20260510030004 | 51 | 234 | 1.0 | 3.0 | 0.00 | 0.25 | 0.25 | 96 | 1011.7 |
| 20260510024003 | 51 | 250 | 0.0 | 3.0 | 0.00 | 0.25 | 0.25 | 95 | 1011.5 |
| 20260510023004 | 51 | 235 | 1.0 | 3.0 | 0.00 | 0.25 | 0.25 | 94 | 1011.3 |
| 20260510022004 | 52 | 249 | 2.0 | 3.0 | 0.00 | 0.25 | 0.25 | 94 | 1011.1 |
| 20260510021003 | 52 | 229 | 1.0 | 5.0 | 0.00 | 0.25 | 0.25 | 94 | 1011.1 |
| 20260510015003 | 52 | 225 | 2.0 | 6.0 | 0.00 | 0.25 | 0.25 | 94 | 1011.2 |
| 20260510014004 | 52 | 231 | 3.0 | 9.0 | 0.00 | 0.25 | 0.25 | 94 | 1011.0 |
| 20260510013003 | 52 | 241 | 2.0 | 5.0 | 0.00 | 0.25 | 0.25 | 94 | 1010.9 |
| 20260510012003 | 52 | 250 | 2.0 | 7.0 | 0.00 | 0.25 | 0.25 | 94 | 1010.8 |
| 20260510011003 | 52 | 219 | 2.0 | 3.0 | 0.00 | 0.25 | 0.25 | 94 | 1010.6 |
| 20260510005003 | 52 | 199 | 2.0 | 3.0 | 0.00 | 0.25 | 0.25 | 94 | 1010.1 |
| 20260510003004 | 52 | 222 | 1.0 | 5.0 | 0.01 | 0.25 | 0.25 | 94 | 1010.0 |
| 20260510001004 | 52 | 200 | 1.0 | 5.0 | 0.06 | 0.25 | 0.25 | 94 | 1010.1 |
| 20260510000003 | 52 | 199 | 2.0 | 5.0 | 0.25 | 0.25 | 0.25 | 94 | 1009.7 |
| 20260509235003 | 52 | 259 | 3.0 | 7.0 | 0.25 | 0.25 | 0.25 | 93 | 1009.3 |
| 20260509234003 | 52 | 204 | 2.0 | 3.0 | 0.24 | 0.24 | 0.24 | 92 | 1010.2 |
| 20260509233004 | 53 | 234 | 1.0 | 7.0 | 0.24 | 0.24 | 0.24 | 91 | 1010.3 |
| 20260509232005 | 54 | 254 | 2.0 | 9.0 | 0.23 | 0.23 | 0.23 | 88 | 1010.4 |
| 20260509230004 | 63 | 329 | 3.0 | 7.0 | 0.00 | 0.00 | 0.00 | 77 | 1009.9 |
| 20260509225004 | 63 | 241 | 1.0 | 2.0 | 0.00 | 0.00 | 0.00 | 75 | 1007.9 |
| 20260509224004 | 64 | 163 | 1.0 | 3.0 | 0.00 | 0.00 | 0.00 | 74 | 1007.8 |
| 20260509223004 | 64 | 173 | 1.0 | 2.0 | 0.00 | 0.00 | 0.00 | 73 | 1007.9 |
| 20260509221004 | 64 | 209 | 1.0 | 7.0 | 0.00 | 0.00 | 0.00 | 72 | 1008.1 |
| 20260509220004 | 64 | 219 | 0.0 | 3.0 | 0.00 | 0.00 | 0.00 | 70 | 1008.3 |
| 20260509215005 | 64 | 211 | 2.0 | 3.0 | 0.00 | 0.00 | 0.00 | 69 | 1008.4 |
| 20260509214004 | 65 | 234 | 2.0 | 3.0 | 0.00 | 0.00 | 0.00 | 69 | 1008.4 |
| 20260509213004 | 65 | 225 | 2.0 | 7.0 | 0.00 | 0.00 | 0.00 | 68 | 1008.4 |
| 20260509212004 | 65 | 210 | 2.0 | 5.0 | 0.00 | 0.00 | 0.00 | 67 | 1008.7 |
| 20260509211004 | 66 | 276 | 1.0 | 6.0 | 0.00 | 0.00 | 0.00 | 67 | 1008.8 |
| 20260509210004 | 66 | 248 | 2.0 | 7.0 | 0.00 | 0.00 | 0.00 | 66 | 1008.9 |
| 20260509205005 | 66 | 249 | 2.0 | 3.0 | 0.00 | 0.00 | 0.00 | 66 | 1008.8 |
| 20260509204004 | 66 | 271 | 3.0 | 8.0 | 0.00 | 0.00 | 0.00 | 65 | 1008.8 |
| 20260509203004 | 66 | 228 | 2.0 | 5.0 | 0.00 | 0.00 | 0.00 | 63 | 1009.0 |
| 20260509202005 | 68 | 253 | 2.0 | 6.0 | 0.00 | 0.00 | 0.00 | 60 | 1008.8 |
| 20260509201004 | 68 | 263 | 2.0 | 7.0 | 0.00 | 0.00 | 0.00 | 61 | 1008.9 |
| 20260509195004 | 67 | 281 | 2.0 | 14.0 | 0.00 | 0.00 | 0.00 | 65 | 1009.1 |
| 20260509194004 | 67 | 224 | 5.0 | 12.0 | 0.00 | 0.00 | 0.00 | 62 | 1009.3 |
| 20260509193004 | 67 | 208 | 3.0 | 8.0 | 0.00 | 0.00 | 0.00 | 63 | 1009.5 |
| 20260509192004 | 67 | 217 | 2.0 | 8.0 | 0.00 | 0.00 | 0.00 | 63 | 1009.6 |
| 20260509191004 | 67 | 241 | 4.0 | 9.0 | 0.00 | 0.00 | 0.00 | 62 | 1009.7 |
| 20260509190005 | 68 | 167 | 2.0 | 10.0 | 0.00 | 0.00 | 0.00 | 61 | 1009.8 |
| 20260509185004 | 69 | 219 | 2.0 | 10.0 | 0.00 | 0.00 | 0.00 | 60 | 1009.7 |
| 20260509183003 | 69 | 159 | 3.0 | 10.0 | 0.00 | 0.00 | 0.00 | 61 | 1009.9 |
| 20260509182003 | 68 | 234 | 3.0 | 10.0 | 0.00 | 0.00 | 0.00 | 58 | 1010.0 |
| 20260509181003 | 68 | 255 | 2.0 | 8.0 | 0.00 | 0.00 | 0.00 | 63 | 1009.9 |
| 20260509180003 | 67 | 231 | 3.0 | 8.0 | 0.00 | 0.00 | 0.00 | 63 | 1010.2 |
| 20260509175004 | 66 | 207 | 2.0 | 9.0 | 0.00 | 0.00 | 0.00 | 62 | 1010.4 |
| 20260509173003 | 65 | 227 | 1.0 | 12.0 | 0.00 | 0.00 | 0.00 | 69 | 1010.8 |
| 20260509171003 | 65 | 222 | 3.0 | 8.0 | 0.00 | 0.00 | 0.00 | 64 | 1010.9 |
| 20260509170004 | 64 | 224 | 2.0 | 8.0 | 0.00 | 0.00 | 0.00 | 65 | 1010.9 |
| 20260509165003 | 66 | 233 | 2.0 | 7.0 | 0.00 | 0.00 | 0.00 | 66 | 1011.0 |
| 20260509164003 | 67 | 197 | 2.0 | 12.0 | 0.00 | 0.00 | 0.00 | 66 | 1011.2 |
| 20260509163004 | 66 | 205 | 1.0 | 8.0 | 0.00 | 0.00 | 0.00 | 66 | 1011.3 |
| 20260509162003 | 64 | 170 | 3.0 | 8.0 | 0.00 | 0.00 | 0.00 | 65 | 1011.5 |
| 20260509160004 | 64 | 213 | 2.0 | 10.0 | 0.00 | 0.00 | 0.00 | 69 | 1011.3 |
| 20260509155003 | 65 | 225 | 2.0 | 8.0 | 0.00 | 0.00 | 0.00 | 66 | 1011.5 |
| 20260509154003 | 64 | 153 | 3.0 | 9.0 | 0.00 | 0.00 | 0.00 | 69 | 1011.7 |
| 20260509153004 | 63 | 166 | 3.0 | 8.0 | 0.00 | 0.00 | 0.00 | 72 | 1011.9 |
| 20260509152003 | 62 | 230 | 3.0 | 9.0 | 0.00 | 0.00 | 0.00 | 71 | 1012.1 |
| 20260509151003 | 62 | 304 | 2.0 | 7.0 | 0.00 | 0.00 | 0.00 | 70 | 1012.2 |
| 20260509150005 | 61 | 211 | 2.0 | 5.0 | 0.00 | 0.00 | 0.00 | 75 | 1012.1 |
| 20260509145003 | 60 | 224 | 2.0 | 3.0 | 0.00 | 0.00 | 0.00 | 78 | 1012.2 |
| 20260509144003 | 60 | 261 | 3.0 | 3.0 | 0.00 | 0.00 | 0.00 | 76 | 1012.2 |
| 20260509143004 | 60 | 269 | 2.0 | 8.0 | 0.00 | 0.00 | 0.00 | 78 | 1012.3 |
| 20260509142004 | 60 | 223 | 3.0 | 5.0 | 0.00 | 0.00 | 0.00 | 78 | 1012.4 |
| 20260509141003 | 60 | 262 | 2.0 | 3.0 | 0.00 | 0.00 | 0.00 | 79 | 1012.4 |
| 20260509140004 | 59 | 197 | 2.0 | 8.0 | 0.00 | 0.00 | 0.00 | 81 | 1012.6 |
| 20260509135004 | 58 | 187 | 3.0 | 7.0 | 0.00 | 0.00 | 0.00 | 82 | 1012.7 |
| 20260509132005 | 56 | 162 | 3.0 | 5.0 | 0.00 | 0.00 | 0.00 | 84 | 1013.0 |
| 20260509131005 | 56 | 163 | 2.0 | 5.0 | 0.00 | 0.00 | 0.00 | 86 | 1013.0 |
| 20260509130005 | 55 | 157 | 2.0 | 3.0 | 0.00 | 0.00 | 0.00 | 86 | 1013.2 |
| 20260509124005 | 53 | 195 | 1.0 | 3.0 | 0.00 | 0.00 | 0.00 | 89 | 1013.2 |
| 20260509122004 | 50 | 140 | 0.0 | 3.0 | 0.00 | 0.00 | 0.00 | 94 | 1013.4 |
| 20260509121005 | 49 | 154 | 0.0 | 1.0 | 0.00 | 0.00 | 0.00 | 95 | 1013.4 |
| 20260509120004 | 47 | 125 | 0.0 | 0.0 | 0.00 | 0.01 | 0.00 | 94 | 1013.3 |
| 20260509113005 | 44 | 125 | 0.0 | 0.0 | 0.00 | 0.02 | 0.00 | 95 | 1013.2 |
| 20260509111006 | 42 | 125 | 0.0 | 0.0 | 0.00 | 0.03 | 0.00 | 96 | 1013.3 |
| 20260509105005 | 41 | 125 | 0.0 | 0.0 | 0.00 | 0.03 | 0.00 | 95 | 1013.5 |
| 20260509104006 | 41 | 125 | 0.0 | 0.0 | 0.00 | 0.03 | 0.00 | 94 | 1013.6 |
| 20260509102005 | 41 | 125 | 0.0 | 0.0 | 0.00 | 0.03 | 0.00 | 94 | 1013.5 |
| 20260509101005 | 40 | 125 | 0.0 | 0.0 | 0.00 | 0.03 | 0.00 | 94 | 1013.3 |
| 20260509100005 | 40 | 125 | 0.0 | 0.0 | 0.00 | 0.03 | 0.00 | 94 | 1013.2 |
| 20260509095005 | 40 | 125 | 0.0 | 0.0 | 0.00 | 0.03 | 0.00 | 94 | 1013.1 |
| 20260509094005 | 39 | 125 | 0.0 | 0.0 | 0.00 | 0.03 | 0.00 | 93 | 1013.2 |
| 20260509093005 | 39 | 125 | 0.0 | 0.0 | 0.00 | 0.03 | 0.00 | 92 | 1013.1 |
| 20260509092006 | 39 | 125 | 0.0 | 0.0 | 0.00 | 0.03 | 0.00 | 92 | 1013.3 |
| 20260509091006 | 39 | 125 | 0.0 | 0.0 | 0.00 | 0.03 | 0.00 | 92 | 1013.4 |
| 20260509085007 | 39 | 125 | 0.0 | 0.0 | 0.00 | 0.04 | 0.00 | 92 | 1013.4 |
| 20260509083005 | 40 | 125 | 0.0 | 0.0 | 0.00 | 0.04 | 0.00 | 92 | 1013.5 |
| 20260509082005 | 40 | 125 | 0.0 | 0.0 | 0.00 | 0.04 | 0.00 | 91 | 1013.5 |
| 20260509081007 | 40 | 125 | 0.0 | 0.0 | 0.00 | 0.04 | 0.00 | 91 | 1013.5 |
| 20260509080005 | 40 | 125 | 0.0 | 0.0 | 0.00 | 0.04 | 0.00 | 90 | 1013.6 |
| 20260509075005 | 40 | 125 | 0.0 | 0.0 | 0.00 | 0.04 | 0.00 | 90 | 1013.7 |
| 20260509074006 | 40 | 125 | 0.0 | 0.0 | 0.00 | 0.04 | 0.00 | 89 | 1013.8 |
| 20260509073005 | 40 | 125 | 0.0 | 0.0 | 0.00 | 0.04 | 0.00 | 89 | 1013.9 |
| 20260509072005 | 40 | 125 | 0.0 | 0.0 | 0.00 | 0.04 | 0.00 | 89 | 1014.0 |
| 20260509071006 | 40 | 125 | 0.0 | 0.0 | 0.00 | 0.04 | 0.00 | 89 | 1014.2 |
| 20260509070006 | 40 | 125 | 0.0 | 0.0 | 0.00 | 0.04 | 0.00 | 88 | 1014.1 |
| 20260509064008 | 41 | 125 | 0.0 | 1.0 | 0.00 | 0.04 | 0.00 | 89 | 1014.3 |
| 20260509063006 | 41 | 125 | 1.0 | 3.0 | 0.00 | 0.04 | 0.00 | 89 | 1014.6 |
| 20260509062006 | 41 | 262 | 0.0 | 2.0 | 0.00 | 0.04 | 0.00 | 90 | 1014.7 |
| 20260509061006 | 41 | 167 | 0.0 | 0.0 | 0.00 | 0.04 | 0.00 | 90 | 1014.8 |
| 20260509060006 | 40 | 167 | 0.0 | 0.0 | 0.00 | 0.04 | 0.00 | 90 | 1014.9 |
| 20260509055006 | 40 | 167 | 0.0 | 0.0 | 0.00 | 0.04 | 0.00 | 89 | 1014.9 |
| 20260509054007 | 40 | 167 | 0.0 | 0.0 | 0.00 | 0.04 | 0.00 | 88 | 1015.0 |
| 20260509053006 | 40 | 167 | 0.0 | 0.0 | 0.00 | 0.04 | 0.00 | 87 | 1015.1 |
| 20260509052007 | 40 | 167 | 0.0 | 0.0 | 0.00 | 0.04 | 0.00 | 88 | 1015.2 |